sat.trackr.live / text

‹ back to catalog

ZIYUAN 3-03 (ZY 3-03)

NORAD 45939 · 2020-051A

PAYLOAD ACTIVE UNKNOWN

§ Identity

Operator
Country
PRC
Launch date
2020-07-25
Launch site
TAISC
Launch vehicle
Mass (kg)
RCS (m²)

External: N2YO · Heavens-Above · Gunter

§ Orbital elements

Epoch: 2026-09-10T04:01:08.550912Z

Period
94.65 min
Inclination
97.5313°
Eccentricity
0.0006887
Mean motion
15.21329726 rev/d
Perigee alt
497.1 km
Apogee alt
506.6 km
Semi-major
6,880.0 km
B*
1.6801e-4
RAAN
320.2095°
Arg perigee
63.7197°
Mean anomaly
296.4745°
Rev number
34,026

§ Raw data

ZIYUAN 3-03 (ZY 3-03)1 45939U 20051A   26253.16746008  .00003692  00000+0  16801-3 0  99962 45939  97.5313 320.2095 0006887  63.7197 296.4745 15.21329726340263

JSON: /api/v1/satellites/45939 · /tle

For live sub-satellite position, see the globe view (requires WebGL).

§ Visibility from observer

Set your observer location to see the next 7 days of passes ≥ 10°. The values pass through the URL so the page stays shareable.

No JS? Fill the form by hand. The geolocation button needs JavaScript.

§ Radio — SatNOGS DB

ModeDescriptionDownlinkUplink
FM S-band telemetry 2.246 GHz

1 transmitter · refreshed weekly from db.satnogs.org